TGW484 WSSS-WMKI

Flight info

Callsign TGW484
Flight time 0h 48m
Altitude 36000
Route AROSO3A AROSO Y513 KALIL Y504 BILIK Y506 TEPUS TEPUS2E
Aircraft A320/M-SDFGHIRWYZ/LB1

Departure

Time 2026-04-13 14:28
Airport Singapore Changi Airport (WSSS)

Arrival

Time 2026-04-13 15:17
Airport Sultan Azlan Shah Airport (WMKI)
Time Latitude Longitude Altitude Speed Heading
2026-04-13 13:52 1.36236 103.99178 24 ft 0 kts 118°
2026-04-13 14:12 1.36238 103.99173 25 ft 3 kts 118°
2026-04-13 14:12 1.36247 103.99158 24 ft 3 kts 118°
2026-04-13 14:12 1.36255 103.99143 24 ft 2 kts 133°
2026-04-13 14:12 1.36267 103.99131 24 ft 2 kts 151°
2026-04-13 14:13 1.36282 103.99123 25 ft 2 kts 154°
2026-04-13 14:13 1.36296 103.99115 24 ft 2 kts 121°
2026-04-13 14:13 1.36300 103.99099 24 ft 2 kts 69°
2026-04-13 14:14 1.36297 103.99090 24 ft 1 kts 24°
2026-04-13 14:14 1.36304 103.99093 24 ft 0 kts 24°
2026-04-13 14:15 1.36314 103.99098 24 ft 3 kts 24°
2026-04-13 14:15 1.36340 103.99110 26 ft 6 kts 24°
2026-04-13 14:16 1.36385 103.99129 26 ft 8 kts 22°
2026-04-13 14:16 1.36445 103.99160 26 ft 11 kts 38°
2026-04-13 14:16 1.36496 103.99228 25 ft 14 kts 54°
2026-04-13 14:16 1.36557 103.99313 24 ft 16 kts 54°
2026-04-13 14:17 1.36581 103.99379 24 ft 16 kts 90°
2026-04-13 14:17 1.36538 103.99487 25 ft 18 kts 112°
2026-04-13 14:17 1.36486 103.99610 24 ft 20 kts 112°
2026-04-13 14:17 1.36434 103.99736 26 ft 19 kts 112°
2026-04-13 14:18 1.36340 103.99759 24 ft 16 kts 203°
2026-04-13 14:18 1.36226 103.99712 24 ft 19 kts 202°
2026-04-13 14:18 1.36097 103.99657 25 ft 21 kts 202°
2026-04-13 14:18 1.35952 103.99595 24 ft 24 kts 203°
2026-04-13 14:19 1.35790 103.99527 26 ft 26 kts 203°
2026-04-13 14:19 1.35624 103.99458 25 ft 26 kts 202°
2026-04-13 14:19 1.35490 103.99402 24 ft 11 kts 202°
2026-04-13 14:19 1.35414 103.99368 26 ft 13 kts 204°
2026-04-13 14:20 1.35323 103.99328 24 ft 15 kts 203°
2026-04-13 14:20 1.35216 103.99285 25 ft 18 kts 202°
2026-04-13 14:20 1.35094 103.99233 24 ft 20 kts 202°
2026-04-13 14:20 1.34957 103.99175 25 ft 23 kts 203°
2026-04-13 14:21 1.34804 103.99111 26 ft 24 kts 202°
2026-04-13 14:21 1.34645 103.99045 24 ft 26 kts 202°
2026-04-13 14:21 1.34481 103.98975 24 ft 25 kts 204°
2026-04-13 14:21 1.34325 103.98908 24 ft 25 kts 202°
2026-04-13 14:22 1.34165 103.98842 24 ft 25 kts 202°
2026-04-13 14:22 1.34001 103.98772 26 ft 26 kts 203°
2026-04-13 14:22 1.33856 103.98711 26 ft 20 kts 203°
2026-04-13 14:22 1.33722 103.98654 24 ft 22 kts 202°
2026-04-13 14:23 1.33571 103.98590 24 ft 25 kts 203°
2026-04-13 14:23 1.33406 103.98521 26 ft 25 kts 203°
2026-04-13 14:23 1.33263 103.98461 24 ft 18 kts 202°
2026-04-13 14:23 1.33144 103.98410 25 ft 19 kts 203°
2026-04-13 14:24 1.33017 103.98357 25 ft 17 kts 203°
2026-04-13 14:24 1.32981 103.98355 26 ft 3 kts 160°
2026-04-13 14:24 1.32965 103.98371 25 ft 4 kts 127°
2026-04-13 14:24 1.32960 103.98381 24 ft 0 kts 113°
2026-04-13 14:25 1.32959 103.98383 24 ft 0 kts 113°
2026-04-13 14:25 1.32951 103.98403 25 ft 5 kts 113°
2026-04-13 14:26 1.32934 103.98442 25 ft 7 kts 113°
2026-04-13 14:26 1.32917 103.98500 24 ft 10 kts 85°
2026-04-13 14:26 1.32961 103.98530 24 ft 5 kts 21°
2026-04-13 14:26 1.32964 103.98531 24 ft 0 kts 22°
2026-04-13 14:27 1.32967 103.98533 24 ft 2 kts 22°
2026-04-13 14:27 1.33153 103.98609 24 ft 65 kts 23°
2026-04-13 14:27 1.33776 103.98873 24 ft 126 kts 22°
2026-04-13 14:28 1.34725 103.99285 104 ft 164 kts 24°
2026-04-13 14:28 1.35759 103.99738 755 ft 163 kts 24°
2026-04-13 14:28 1.36825 104.00180 1323 ft 168 kts 23°
2026-04-13 14:28 1.37936 104.00609 1876 ft 177 kts 22°
2026-04-13 14:29 1.39135 104.01089 2212 ft 196 kts 24°
2026-04-13 14:29 1.40463 104.01658 2450 ft 219 kts 25°
2026-04-13 14:29 1.41947 104.02300 2761 ft 245 kts 25°
2026-04-13 14:29 1.43588 104.03009 3254 ft 266 kts 24°
2026-04-13 14:30 1.45302 104.03744 4103 ft 270 kts 25°
2026-04-13 14:30 1.47053 104.04457 5015 ft 274 kts 18°
2026-04-13 14:30 1.48942 104.04751 5898 ft 278 kts 360°
2026-04-13 14:30 1.50858 104.04451 6752 ft 281 kts 342°
2026-04-13 14:31 1.52639 104.03614 7552 ft 285 kts 332°
2026-04-13 14:31 1.54390 104.02658 8345 ft 289 kts 332°
2026-04-13 14:31 1.56168 104.01692 9122 ft 293 kts 332°
2026-04-13 14:31 1.57973 104.00713 9888 ft 297 kts 331°
2026-04-13 14:32 1.59824 103.99712 10328 ft 313 kts 331°
2026-04-13 14:32 1.61808 103.98638 10507 ft 336 kts 331°
2026-04-13 14:32 1.63912 103.97504 10864 ft 349 kts 331°
2026-04-13 14:32 1.66065 103.96345 11450 ft 354 kts 331°
2026-04-13 14:33 1.68247 103.95168 12066 ft 358 kts 331°
2026-04-13 14:33 1.70452 103.93978 12685 ft 363 kts 331°
2026-04-13 14:33 1.72686 103.92773 13291 ft 367 kts 331°
2026-04-13 14:33 1.74866 103.91426 13854 ft 371 kts 322°
2026-04-13 14:34 1.76764 103.89667 14376 ft 376 kts 310°
2026-04-13 14:34 1.78380 103.87609 14943 ft 379 kts 307°
2026-04-13 14:34 1.79989 103.85514 15509 ft 381 kts 307°
2026-04-13 14:34 1.81614 103.83408 16049 ft 384 kts 307°
2026-04-13 14:35 1.83255 103.81288 16569 ft 388 kts 307°
2026-04-13 14:35 1.84913 103.79147 17092 ft 391 kts 307°
2026-04-13 14:35 1.86586 103.76985 17602 ft 395 kts 307°
2026-04-13 14:35 1.88273 103.74803 18118 ft 399 kts 307°
2026-04-13 14:36 1.89976 103.72601 18576 ft 402 kts 307°
2026-04-13 14:36 1.91692 103.70380 19051 ft 405 kts 307°
2026-04-13 14:36 1.93417 103.68138 19540 ft 408 kts 307°
2026-04-13 14:36 1.95150 103.65883 20027 ft 411 kts 307°
2026-04-13 14:37 1.96894 103.63611 20522 ft 413 kts 307°
2026-04-13 14:37 1.98652 103.61325 21017 ft 416 kts 307°
2026-04-13 14:37 2.00421 103.59026 21508 ft 419 kts 307°
2026-04-13 14:37 2.02204 103.56709 21993 ft 422 kts 307°
2026-04-13 14:38 2.03999 103.54377 22463 ft 425 kts 307°
2026-04-13 14:38 2.05805 103.52028 22914 ft 427 kts 307°
2026-04-13 14:38 2.07622 103.49666 23370 ft 430 kts 307°
2026-04-13 14:38 2.09452 103.47287 23754 ft 433 kts 307°
2026-04-13 14:39 2.11294 103.44892 24107 ft 436 kts 307°
2026-04-13 14:39 2.13118 103.42469 24453 ft 437 kts 303°
2026-04-13 14:39 2.14609 103.39860 24791 ft 439 kts 294°
2026-04-13 14:39 2.15670 103.36999 25124 ft 440 kts 285°
2026-04-13 14:40 2.16529 103.34051 25467 ft 443 kts 285°
2026-04-13 14:40 2.17393 103.31089 25804 ft 445 kts 285°
2026-04-13 14:40 2.18260 103.28115 26126 ft 447 kts 285°
2026-04-13 14:40 2.19135 103.25119 26466 ft 450 kts 285°
2026-04-13 14:41 2.20016 103.22113 26791 ft 452 kts 285°
2026-04-13 14:41 2.20904 103.19099 27112 ft 453 kts 285°
2026-04-13 14:41 2.21797 103.16067 27417 ft 455 kts 285°
2026-04-13 14:41 2.22692 103.13022 27720 ft 457 kts 286°
2026-04-13 14:42 2.23585 103.09961 28003 ft 460 kts 285°
2026-04-13 14:42 2.24480 103.06884 28323 ft 462 kts 285°
2026-04-13 14:42 2.25378 103.03799 28648 ft 464 kts 285°
2026-04-13 14:42 2.26284 103.00694 28947 ft 466 kts 285°
2026-04-13 14:43 2.27198 102.97573 29258 ft 468 kts 285°
2026-04-13 14:43 2.28115 102.94436 29564 ft 474 kts 285°
2026-04-13 14:43 2.29038 102.91280 29910 ft 474 kts 285°
2026-04-13 14:43 2.29976 102.88121 30183 ft 473 kts 285°
2026-04-13 14:44 2.30909 102.84954 30368 ft 476 kts 285°
2026-04-13 14:44 2.31836 102.81767 30598 ft 477 kts 285°
2026-04-13 14:44 2.32762 102.78572 30924 ft 479 kts 285°
2026-04-13 14:44 2.33678 102.75370 31275 ft 479 kts 285°
2026-04-13 14:45 2.34609 102.72174 31649 ft 479 kts 285°
2026-04-13 14:45 2.35545 102.68985 32062 ft 477 kts 286°
2026-04-13 14:45 2.36490 102.65805 32468 ft 477 kts 285°
2026-04-13 14:45 2.37424 102.62626 32887 ft 476 kts 286°
2026-04-13 14:46 2.38354 102.59469 33272 ft 473 kts 285°
2026-04-13 14:46 2.39277 102.56316 33612 ft 473 kts 285°
2026-04-13 14:46 2.40199 102.53157 33982 ft 472 kts 285°
2026-04-13 14:46 2.41117 102.50012 34321 ft 472 kts 285°
2026-04-13 14:47 2.42037 102.46864 34677 ft 472 kts 285°
2026-04-13 14:47 2.42955 102.43729 35035 ft 469 kts 285°
2026-04-13 14:47 2.43854 102.40641 35326 ft 468 kts 285°
2026-04-13 14:47 2.44782 102.37478 35541 ft 468 kts 286°
2026-04-13 14:48 2.45801 102.34422 35732 ft 471 kts 293°
2026-04-13 14:48 2.47302 102.31479 35890 ft 468 kts 302°
2026-04-13 14:48 2.51110 102.26206 35966 ft 474 kts 307°
2026-04-13 14:49 2.55020 102.20906 35932 ft 472 kts 306°
2026-04-13 14:49 2.58913 102.15601 35932 ft 474 kts 306°
2026-04-13 14:50 2.62788 102.10291 35921 ft 471 kts 307°
2026-04-13 14:50 2.66697 102.05009 35952 ft 474 kts 307°
2026-04-13 14:51 2.70606 101.99695 35922 ft 477 kts 307°
2026-04-13 14:51 2.74537 101.94393 35912 ft 474 kts 307°
2026-04-13 14:52 2.78464 101.89055 35942 ft 476 kts 307°
2026-04-13 14:52 2.82402 101.83699 35887 ft 475 kts 307°
2026-04-13 14:53 2.86316 101.78376 35881 ft 475 kts 306°
2026-04-13 14:53 2.90207 101.73040 35893 ft 477 kts 307°
2026-04-13 14:54 2.94130 101.67712 35907 ft 476 kts 307°
2026-04-13 14:54 2.98067 101.62378 35913 ft 476 kts 307°
2026-04-13 14:55 3.02005 101.57040 35941 ft 477 kts 306°
2026-04-13 14:55 3.05934 101.51699 35912 ft 477 kts 306°
2026-04-13 14:56 3.07901 101.49029 35627 ft 477 kts 306°
2026-04-13 14:56 3.09861 101.46359 34697 ft 486 kts 307°
2026-04-13 14:56 3.11867 101.43630 33782 ft 489 kts 307°
2026-04-13 14:56 3.13902 101.40864 32792 ft 493 kts 306°
2026-04-13 14:57 3.15936 101.38089 31931 ft 495 kts 307°
2026-04-13 14:57 3.17954 101.35329 31399 ft 487 kts 306°
2026-04-13 14:57 3.19939 101.32612 30778 ft 481 kts 306°
2026-04-13 14:58 3.23862 101.27265 29488 ft 474 kts 306°
2026-04-13 14:58 3.25806 101.24624 28891 ft 469 kts 306°
2026-04-13 14:58 3.27730 101.22010 28283 ft 464 kts 306°
2026-04-13 14:58 3.29636 101.19417 27680 ft 460 kts 306°
2026-04-13 14:59 3.31524 101.16846 27081 ft 456 kts 306°
2026-04-13 14:59 3.33545 101.14421 26490 ft 453 kts 315°
2026-04-13 14:59 3.35951 101.12416 25925 ft 448 kts 326°
2026-04-13 14:59 3.38650 101.10900 25366 ft 444 kts 336°
2026-04-13 15:00 3.41456 101.09644 24829 ft 440 kts 336°
2026-04-13 15:00 3.44242 101.08397 24304 ft 437 kts 336°
2026-04-13 15:00 3.47007 101.07157 23799 ft 433 kts 336°
2026-04-13 15:00 3.49752 101.05925 23249 ft 431 kts 336°
2026-04-13 15:01 3.52474 101.04704 22743 ft 427 kts 336°
2026-04-13 15:01 3.55166 101.03497 22254 ft 422 kts 336°
2026-04-13 15:01 3.57839 101.02297 21751 ft 420 kts 336°
2026-04-13 15:01 3.60498 101.01105 21248 ft 418 kts 336°
2026-04-13 15:02 3.63145 100.99919 20726 ft 416 kts 337°
2026-04-13 15:02 3.65873 100.98985 20204 ft 414 kts 348°
2026-04-13 15:02 3.68716 100.98638 19667 ft 411 kts
2026-04-13 15:02 3.71552 100.98887 19129 ft 409 kts 11°
2026-04-13 15:03 3.74348 100.99392 18578 ft 408 kts 11°
2026-04-13 15:03 3.77131 100.99888 18141 ft 401 kts 11°
2026-04-13 15:03 3.79837 101.00363 17426 ft 388 kts 11°
2026-04-13 15:03 3.81571 101.00667 17090 ft 379 kts 11°
2026-04-13 15:04 3.85031 101.01276 16396 ft 375 kts 11°
2026-04-13 15:04 3.86730 101.01577 16047 ft 374 kts 11°
2026-04-13 15:04 3.89285 101.02032 15534 ft 372 kts 11°
2026-04-13 15:04 3.91823 101.02487 15017 ft 370 kts 11°
2026-04-13 15:05 3.94349 101.02940 14498 ft 368 kts 11°
2026-04-13 15:05 3.96858 101.03387 13986 ft 366 kts 11°
2026-04-13 15:05 3.99360 101.03830 13434 ft 364 kts 11°
2026-04-13 15:05 4.01841 101.04270 12897 ft 361 kts 11°
2026-04-13 15:06 4.04296 101.04705 12467 ft 355 kts 11°
2026-04-13 15:06 4.06719 101.05134 11959 ft 352 kts 11°
2026-04-13 15:06 4.09123 101.05560 11455 ft 350 kts 11°
2026-04-13 15:06 4.11509 101.05982 10963 ft 347 kts 11°
2026-04-13 15:07 4.13879 101.06404 10468 ft 345 kts 11°
2026-04-13 15:07 4.16205 101.06819 10280 ft 333 kts 11°
2026-04-13 15:07 4.18440 101.07219 10165 ft 320 kts 11°
2026-04-13 15:07 4.20588 101.07602 10051 ft 308 kts 11°
2026-04-13 15:08 4.22658 101.07972 9884 ft 298 kts 11°
2026-04-13 15:08 4.24701 101.08333 9462 ft 299 kts 11°
2026-04-13 15:08 4.26733 101.08690 9083 ft 297 kts 10°
2026-04-13 15:08 4.28750 101.09048 8791 ft 292 kts 11°
2026-04-13 15:09 4.30734 101.09401 8257 ft 288 kts 10°
2026-04-13 15:09 4.32683 101.09752 7832 ft 280 kts 11°
2026-04-13 15:09 4.34573 101.10091 7461 ft 274 kts 10°
2026-04-13 15:09 4.36453 101.10423 7097 ft 276 kts 10°
2026-04-13 15:10 4.38353 101.10758 6724 ft 278 kts 10°
2026-04-13 15:10 4.40274 101.11096 6351 ft 281 kts 10°
2026-04-13 15:10 4.42204 101.11436 5956 ft 282 kts 10°
2026-04-13 15:10 4.44108 101.11776 5588 ft 282 kts 10°
2026-04-13 15:11 4.46063 101.12128 5205 ft 281 kts
2026-04-13 15:11 4.47923 101.12460 4838 ft 270 kts
2026-04-13 15:11 4.49735 101.12781 4469 ft 260 kts
2026-04-13 15:11 4.51457 101.13170 4128 ft 248 kts 23°
2026-04-13 15:12 4.52832 101.14127 3791 ft 237 kts 42°
2026-04-13 15:12 4.53980 101.15249 3454 ft 229 kts 44°
2026-04-13 15:12 4.55082 101.16377 3107 ft 222 kts 44°
2026-04-13 15:12 4.56223 101.17366 2773 ft 213 kts 28°
2026-04-13 15:13 4.57555 101.17994 2616 ft 210 kts 20°
2026-04-13 15:13 4.58922 101.18534 2813 ft 215 kts 20°
2026-04-13 15:13 4.60377 101.18870 2967 ft 216 kts 360°
2026-04-13 15:13 4.61842 101.18651 2907 ft 215 kts 338°
2026-04-13 15:14 4.63043 101.17735 2443 ft 223 kts 305°
2026-04-13 15:14 4.63607 101.16327 2090 ft 215 kts 274°
2026-04-13 15:14 4.63253 101.14980 2018 ft 190 kts 232°
2026-04-13 15:14 4.62362 101.14101 1924 ft 172 kts 221°
2026-04-13 15:15 4.61529 101.13354 1741 ft 155 kts 221°
2026-04-13 15:15 4.60716 101.12647 1381 ft 153 kts 222°
2026-04-13 15:15 4.59936 101.11943 1069 ft 148 kts 220°
2026-04-13 15:15 4.59166 101.11287 770 ft 141 kts 221°
2026-04-13 15:16 4.58420 101.10642 531 ft 141 kts 221°
2026-04-13 15:16 4.57698 101.09992 267 ft 138 kts 220°
2026-04-13 15:16 4.56987 101.09377 132 ft 128 kts 220°
2026-04-13 15:16 4.56551 101.08994 122 ft 58 kts 224°
2026-04-13 15:17 4.56396 101.08852 127 ft 22 kts 221°
2026-04-13 15:17 4.56280 101.08752 125 ft 22 kts 221°
2026-04-13 15:17 4.56165 101.08664 132 ft 13 kts 204°
2026-04-13 15:17 4.56142 101.08654 132 ft 3 kts 204°
2026-04-13 15:18 4.56122 101.08645 132 ft 4 kts 213°
2026-04-13 15:18 4.56121 101.08615 132 ft 4 kts 309°
2026-04-13 15:18 4.56147 101.08627 132 ft 5 kts 38°
2026-04-13 15:18 4.56178 101.08657 132 ft 7 kts 46°
2026-04-13 15:19 4.56218 101.08696 132 ft 10 kts 42°
2026-04-13 15:19 4.56279 101.08751 128 ft 14 kts 42°
2026-04-13 15:19 4.56365 101.08827 124 ft 18 kts 40°
2026-04-13 15:19 4.56471 101.08920 132 ft 22 kts 40°
2026-04-13 15:20 4.56596 101.09031 120 ft 24 kts 41°
2026-04-13 15:20 4.56712 101.09132 127 ft 22 kts 43°
2026-04-13 15:20 4.56828 101.09232 123 ft 16 kts 39°
2026-04-13 15:20 4.56885 101.09280 128 ft 7 kts 42°
2026-04-13 15:21 4.56914 101.09312 126 ft 6 kts 61°
2026-04-13 15:21 4.56921 101.09347 129 ft 0 kts 88°
2026-04-13 15:21 4.56919 101.09351 129 ft 0 kts 117°
2026-04-13 15:21 4.56885 101.09378 130 ft 9 kts 138°
2026-04-13 15:22 4.56829 101.09439 131 ft 14 kts 121°
2026-04-13 15:22 4.56861 101.09481 131 ft 8 kts 32°
2026-04-13 15:22 4.56917 101.09520 131 ft 11 kts 36°
2026-04-13 15:22 4.56985 101.09577 131 ft 14 kts 42°
2026-04-13 15:23 4.57068 101.09652 132 ft 18 kts 42°
2026-04-13 15:23 4.57121 101.09706 132 ft 6 kts 75°
2026-04-13 15:23 4.57111 101.09726 132 ft 1 kts 117°
2026-04-13 15:23 4.57103 101.09740 132 ft 4 kts 115°
2026-04-13 15:24 4.57093 101.09762 132 ft 0 kts 128°
2026-04-13 15:24 4.57089 101.09763 132 ft 3 kts 153°
2026-04-13 15:24 4.57053 101.09775 132 ft 7 kts 176°
2026-04-13 15:24 4.57030 101.09763 132 ft 2 kts 231°
2026-04-13 15:25 4.57025 101.09760 132 ft 0 kts 214°